Clearfield, PA

7:26 PM EST on December 03, 2016 (GMT -0500)
Clearfield-Lawrence

Weather History for KFIG - September, 2012

Change the Weather History Date:

Tuesday, September 18, 2012

  Actual Average (KDUJ) Record (KDUJ)
Temperature  
Mean Temperature 61 °F 59 °F  
Max Temperature 69 °F 69 °F 84 °F (1965)
Min Temperature 53 °F 49 °F 33 °F (1990)
Degree Days  
Heating Degree Days 4 7  
Month to date heating degree days 75  
Since 1 July heating degree days 137  
Cooling Degree Days 0 1  
Month to date cooling degree days 25  
Year to date cooling degree days 356  
Growing Degree Days 11 (Base 50)    
Moisture  
Dew Point 60 °F    
Average Humidity 92    
Maximum Humidity 100    
Minimum Humidity 76    
Precipitation  
Precipitation 0.99 in 0.12 in 2.11 in (1978)
Month to date precipitation 2.27  
Sea Level Pressure  
Sea Level Pressure 29.69 in    
Wind  
Wind Speed 4 mph (SW)    
Max Wind Speed 17 mph    
Max Gust Speed 24 mph    
Visibility 7 miles    
Events Rain    
T = Trace of Precipitation, MM = Missing Value Source: NWS Daily Summary

Daily Weather History Graph

Daily Weather History Graph

Search for Another Location

Airport or City:

Trip Planner

Search our weather history database for the weather conditions in past years. The results will help you decide how hot, cold, wet, or windy it might be!

Date:

Astronomy

Sep. 18, 2012 Rise Set
Actual Time 6:57 AM EDT 7:16 PM EDT
Civil Twilight 6:30 AM EDT 7:44 PM EDT
Nautical Twilight 5:57 AM EDT 8:16 PM EDT
Astronomical Twilight 5:24 AM EDT 8:49 PM EDT
Moon 9:57 AM EDT (9/18) 8:36 PM EDT (9/18)
Length of Visible Light 13h 14m
Length of Day
12h 19m
Waxing Crescent, 9% of the Moon is Illuminated
Sep 18
Waxing Crescent
Sep 22
First Quarter
Sep 29
Full
Oct 8
Last Quarter
Oct 15
New

Hourly Weather History & Observations

Time (EDT) Temp. Dew Point Humidity Pressure Visibility Wind Dir Wind Speed Gust Speed Precip Events Conditions
12:54 AM 62.1 °F 60.1 °F 93% 29.89 in 9.0 mi Calm Calm - 0.00 in   Overcast
1:07 AM 62.6 °F 60.8 °F 94% 29.91 in 4.0 mi Calm Calm - 0.02 in Rain Light Rain
1:54 AM 62.1 °F 60.1 °F 93% 29.87 in 7.0 mi Calm Calm - 0.02 in   Overcast
2:03 AM 62.6 °F 60.8 °F 94% 29.89 in 8.0 mi Calm Calm - N/A   Mostly Cloudy
2:54 AM 61.0 °F 60.1 °F 97% 29.83 in 6.0 mi Calm Calm - 0.01 in Rain Light Rain
3:16 AM 60.8 °F 60.8 °F 100% 29.84 in 6.0 mi Calm Calm - 0.00 in Rain Light Rain
3:54 AM 62.1 °F 60.1 °F 93% 29.78 in 6.0 mi ENE 3.5 mph - 0.01 in Rain Light Rain
4:09 AM 60.8 °F 60.8 °F 100% 29.80 in 4.0 mi Calm Calm - 0.01 in Rain Light Rain
4:16 AM 60.8 °F 60.8 °F 100% 29.80 in 4.0 mi Calm Calm - 0.01 in Rain Light Rain
4:25 AM 60.8 °F 60.8 °F 100% 29.80 in 4.0 mi East 3.5 mph - 0.02 in Rain Rain
4:54 AM 61.0 °F 60.1 °F 97% 29.75 in 3.0 mi East 3.5 mph - 0.09 in Rain Rain
5:45 AM 60.8 °F 60.8 °F 100% 29.74 in 2.5 mi Calm Calm - 0.16 in Rain Heavy Rain
5:52 AM 60.8 °F 60.8 °F 100% 29.74 in 3.0 mi Calm Calm - 0.17 in Rain Rain
5:54 AM 62.1 °F 61.0 °F 96% 29.72 in 4.0 mi Calm Calm - 0.18 in Rain Rain
6:10 AM 60.8 °F 60.8 °F 100% 29.73 in 1.8 mi Calm Calm - 0.03 in Rain Rain
6:17 AM 60.8 °F 60.8 °F 100% 29.72 in 0.8 mi Calm Calm - 0.03 in Rain Rain
6:25 AM 60.8 °F 60.8 °F 100% 29.72 in 2.0 mi Calm Calm - 0.05 in Rain Rain
6:32 AM 62.6 °F 60.8 °F 94% 29.71 in 6.0 mi East 3.5 mph - 0.06 in Rain Rain
6:52 AM 62.6 °F 60.8 °F 94% 29.69 in 6.0 mi East 3.5 mph - 0.08 in Rain Rain
6:54 AM 62.1 °F 61.0 °F 96% 29.66 in 6.0 mi East 3.5 mph - 0.09 in Rain Rain
7:06 AM 62.6 °F 60.8 °F 94% 29.68 in 7.0 mi Calm Calm - 0.01 in Rain Light Rain
7:54 AM 63.0 °F 62.1 °F 97% 29.62 in 8.0 mi Variable 4.6 mph - 0.10 in Rain Rain
8:22 AM 64.4 °F 62.6 °F 94% 29.63 in 6.0 mi Calm Calm - 0.03 in Rain Rain
8:45 AM 64.4 °F 62.6 °F 94% 29.61 in 2.5 mi Variable 3.5 mph - 0.10 in Rain Rain
8:54 AM 64.0 °F 63.0 °F 96% 29.59 in 1.5 mi South 4.6 mph - 0.16 in Rain Heavy Rain
9:00 AM 64.4 °F 62.6 °F 94% 29.60 in 2.0 mi South 3.5 mph - 0.01 in Rain Rain
9:09 AM 64.4 °F 62.6 °F 94% 29.60 in 6.0 mi South 4.6 mph - 0.02 in Rain Rain
9:54 AM 64.9 °F 64.0 °F 97% 29.57 in 4.0 mi SSW 6.9 mph - 0.07 in Rain Rain
9:59 AM 64.4 °F 64.4 °F 100% 29.58 in 1.5 mi South 8.1 mph - 0.04 in Rain Heavy Rain
10:05 AM 64.4 °F 64.4 °F 100% 29.58 in 1.0 mi SSW 9.2 mph - 0.09 in Rain Heavy Rain
10:23 AM 64.4 °F 64.4 °F 100% 29.59 in 3.0 mi SW 9.2 mph - 0.21 in Rain Light Rain
10:52 AM 66.2 °F 64.4 °F 94% 29.58 in 10.0 mi SSW 9.2 mph - 0.23 in Rain Light Rain
10:54 AM 66.0 °F 64.9 °F 96% 29.57 in 10.0 mi SW 10.4 mph - 0.23 in Rain Light Rain
11:47 AM 64.4 °F 62.6 °F 94% 29.59 in 10.0 mi West 9.2 mph 18.4 mph 0.00 in   Overcast
11:54 AM 64.9 °F 62.1 °F 90% 29.58 in 10.0 mi West 9.2 mph 18.4 mph 0.00 in   Overcast
12:08 PM 64.4 °F 60.8 °F 88% 29.59 in 10.0 mi West 12.7 mph 19.6 mph N/A   Overcast
12:19 PM 64.4 °F 60.8 °F 88% 29.60 in 10.0 mi WSW 9.2 mph - N/A   Overcast
12:54 PM 66.9 °F 61.0 °F 81% 29.57 in 10.0 mi SW 9.2 mph - N/A   Scattered Clouds
1:12 PM 68.0 °F 60.8 °F 78% 29.60 in 10.0 mi West 12.7 mph 19.6 mph N/A   Mostly Cloudy
1:54 PM 66.9 °F 60.1 °F 79% 29.59 in 10.0 mi WSW 10.4 mph - N/A   Overcast
2:54 PM 66.9 °F 60.1 °F 79% 29.58 in 10.0 mi SW 10.4 mph 17.3 mph N/A   Scattered Clouds
3:54 PM 68.0 °F 60.1 °F 76% 29.58 in 10.0 mi SSW 11.5 mph - N/A   Scattered Clouds
4:41 PM 68.0 °F 60.8 °F 78% 29.61 in 10.0 mi SW 11.5 mph - N/A   Mostly Cloudy
4:54 PM 66.9 °F 61.0 °F 81% 29.59 in 10.0 mi SW 9.2 mph - N/A   Mostly Cloudy
5:16 PM 66.2 °F 60.8 °F 83% 29.61 in 10.0 mi SSW 10.4 mph - N/A   Mostly Cloudy
5:35 PM 66.2 °F 60.8 °F 83% 29.61 in 7.0 mi SSW 17.3 mph 24.2 mph 0.00 in Rain Light Rain
5:54 PM 64.0 °F 62.1 °F 93% 29.62 in 7.0 mi West 8.1 mph - 0.02 in Rain Light Rain
6:54 PM 60.1 °F 57.0 °F 90% 29.69 in 10.0 mi WNW 12.7 mph 19.6 mph 0.00 in Rain Light Rain
7:54 PM 57.0 °F 54.0 °F 89% 29.74 in 10.0 mi West 11.5 mph 24.2 mph 0.01 in   Overcast
8:12 PM 57.2 °F 53.6 °F 88% 29.76 in 10.0 mi WNW 11.5 mph - N/A   Overcast
8:30 PM 57.2 °F 53.6 °F 88% 29.77 in 10.0 mi WNW 11.5 mph 19.6 mph N/A   Overcast
8:54 PM 55.9 °F 52.0 °F 87% 29.79 in 10.0 mi West 5.8 mph - N/A   Mostly Cloudy
9:54 PM 55.0 °F 50.0 °F 83% 29.83 in 10.0 mi West 11.5 mph 17.3 mph N/A   Scattered Clouds
10:54 PM 54.0 °F 50.0 °F 86% 29.85 in 10.0 mi West 5.8 mph - N/A   Scattered Clouds
11:54 PM 53.1 °F 48.9 °F 86% 29.87 in 10.0 mi West 6.9 mph - N/A   Mostly Cloudy